| time (UTC) | temp F | wind direction | speed knots | gust knots | rain 1hr in | rain 24hr in | rain mn in | humidity % | barometer mb |
| 20260505230203 | 49 | 332 | 0.0 | 0.0 | 0.01 | 0.41 | 0.41 | 90 | 1007.8 |
| 20260505225201 | 49 | 332 | 0.0 | 1.7 | 0.11 | 0.39 | 0.39 | 90 | 1008.0 |
| 20260505224224 | 49 | 308 | 0.9 | 3.5 | 0.09 | 0.37 | 0.37 | 90 | 1008.1 |
| 20260505223225 | 50 | 307 | 0.9 | 4.3 | 0.07 | 0.35 | 0.35 | 90 | 1008.1 |
| 20260505222203 | 50 | 334 | 2.6 | 4.3 | 0.05 | 0.33 | 0.33 | 89 | 1008.1 |
| 20260505221202 | 50 | 315 | 1.7 | 3.5 | 0.03 | 0.31 | 0.31 | 89 | 1008.4 |
| 20260505220204 | 50 | 309 | 0.0 | 4.3 | 0.01 | 0.29 | 0.29 | 89 | 1007.8 |
| 20260505215201 | 50 | 309 | 1.7 | 6.1 | 0.18 | 0.26 | 0.26 | 88 | 1007.9 |
| 20260505214202 | 51 | 300 | 2.6 | 5.2 | 0.16 | 0.24 | 0.24 | 88 | 1007.9 |
| 20260505213224 | 51 | 293 | 2.6 | 7.0 | 0.13 | 0.21 | 0.21 | 87 | 1007.7 |
| 20260505212201 | 52 | 316 | 2.6 | 11.3 | 0.09 | 0.17 | 0.17 | 86 | 1007.4 |
| 20260505211202 | 54 | 295 | 7.0 | 14.8 | 0.05 | 0.13 | 0.13 | 87 | 1007.4 |
| 20260505210203 | 54 | 320 | 3.5 | 6.1 | 0.00 | 0.08 | 0.08 | 86 | 1007.0 |
| 20260505205201 | 55 | 248 | 2.6 | 7.0 | 0.01 | 0.05 | 0.05 | 85 | 1006.4 |
| 20260505204224 | 55 | 250 | 1.7 | 7.0 | 0.00 | 0.04 | 0.04 | 84 | 1006.1 |
| 20260505203202 | 56 | 257 | 1.7 | 5.2 | 0.00 | 0.04 | 0.04 | 82 | 1005.8 |
| 20260505202202 | 56 | 224 | 0.9 | 7.0 | 0.00 | 0.04 | 0.04 | 81 | 1005.8 |
| 20260505201203 | 56 | 263 | 1.7 | 7.8 | 0.00 | 0.04 | 0.04 | 81 | 1006.0 |
| 20260505200202 | 58 | 226 | 3.5 | 13.0 | 0.00 | 0.04 | 0.04 | 78 | 1005.9 |
| 20260505195222 | 60 | 225 | 2.6 | 6.1 | 0.00 | 0.04 | 0.04 | 74 | 1005.6 |
| 20260505194203 | 63 | 213 | 3.5 | 6.1 | 0.00 | 0.04 | 0.04 | 70 | 1005.1 |
| 20260505193201 | 65 | 267 | 4.3 | 14.8 | 0.00 | 0.04 | 0.04 | 70 | 1004.9 |
| 20260505192202 | 65 | 250 | 4.3 | 13.9 | 0.00 | 0.04 | 0.04 | 69 | 1004.7 |
| 20260505191202 | 67 | 285 | 8.7 | 19.1 | 0.00 | 0.04 | 0.04 | 66 | 1004.8 |
| 20260505190203 | 67 | 282 | 5.2 | 14.8 | 0.00 | 0.04 | 0.04 | 66 | 1004.7 |
| 20260505185203 | 67 | 273 | 6.1 | 20.0 | 0.00 | 0.04 | 0.04 | 66 | 1004.7 |
| 20260505184222 | 67 | 284 | 4.3 | 18.2 | 0.00 | 0.04 | 0.04 | 66 | 1004.5 |
| 20260505183202 | 67 | 293 | 9.6 | 21.7 | 0.00 | 0.04 | 0.04 | 67 | 1004.3 |
| 20260505182202 | 67 | 272 | 7.0 | 18.2 | 0.00 | 0.04 | 0.04 | 66 | 1004.5 |
| 20260505180201 | 67 | 281 | 10.4 | 20.0 | 0.00 | 0.04 | 0.04 | 67 | 1004.2 |
| 20260505175223 | 66 | 260 | 7.0 | 25.2 | 0.00 | 0.04 | 0.04 | 69 | 1004.2 |
| 20260505174201 | 67 | 235 | 7.8 | 23.5 | 0.00 | 0.04 | 0.04 | 67 | 1004.1 |
| 20260505173202 | 67 | 282 | 13.0 | 24.3 | 0.00 | 0.04 | 0.04 | 67 | 1004.1 |
| 20260505172203 | 67 | 278 | 8.7 | 25.2 | 0.00 | 0.04 | 0.04 | 68 | 1004.1 |
| 20260505171203 | 67 | 275 | 7.0 | 17.4 | 0.00 | 0.04 | 0.04 | 69 | 1004.1 |
| 20260505170202 | 66 | 256 | 6.1 | 16.5 | 0.00 | 0.04 | 0.04 | 69 | 1004.1 |
| 20260505165201 | 66 | 252 | 8.7 | 20.0 | 0.00 | 0.04 | 0.04 | 68 | 1004.2 |
| 20260505164202 | 66 | 271 | 10.4 | 23.5 | 0.00 | 0.04 | 0.04 | 68 | 1003.8 |
| 20260505163202 | 66 | 261 | 4.3 | 22.6 | 0.00 | 0.04 | 0.04 | 71 | 1003.8 |
| 20260505162202 | 65 | 284 | 7.8 | 16.5 | 0.00 | 0.04 | 0.04 | 70 | 1003.7 |
| 20260505161202 | 64 | 255 | 6.1 | 13.9 | 0.00 | 0.04 | 0.04 | 72 | 1003.5 |
| 20260505160202 | 63 | 234 | 6.1 | 18.2 | 0.00 | 0.04 | 0.04 | 70 | 1003.7 |
| 20260505153201 | 64 | 289 | 10.4 | 27.8 | 0.00 | 0.04 | 0.04 | 67 | 1003.8 |
| 20260505152202 | 65 | 254 | 6.1 | 16.5 | 0.00 | 0.04 | 0.04 | 68 | 1003.2 |
| 20260505151202 | 64 | 264 | 6.1 | 15.6 | 0.00 | 0.04 | 0.04 | 71 | 1002.9 |
| 20260505150224 | 63 | 268 | 5.2 | 14.8 | 0.00 | 0.04 | 0.04 | 72 | 1002.7 |
| 20260505140202 | 63 | 239 | 4.3 | 10.4 | 0.00 | 0.04 | 0.04 | 71 | 1002.7 |
| 20260505130202 | 62 | 276 | 5.2 | 12.2 | 0.00 | 0.04 | 0.04 | 72 | 1002.2 |
| 20260505124202 | 64 | 249 | 3.5 | 8.7 | 0.00 | 0.04 | 0.04 | 70 | 1001.6 |
| 20260505123201 | 64 | 231 | 3.5 | 9.6 | 0.00 | 0.04 | 0.04 | 71 | 1001.6 |
| 20260505122203 | 64 | 240 | 4.3 | 11.3 | 0.00 | 0.04 | 0.04 | 70 | 1001.5 |
| 20260505121201 | 64 | 254 | 5.2 | 13.9 | 0.00 | 0.04 | 0.04 | 70 | 1001.5 |
| 20260505120202 | 64 | 240 | 2.6 | 9.6 | 0.00 | 0.04 | 0.04 | 72 | 1001.2 |
| 20260505115203 | 64 | 228 | 1.7 | 8.7 | 0.00 | 0.04 | 0.04 | 71 | 1001.0 |
| 20260505114203 | 64 | 225 | 3.5 | 7.0 | 0.00 | 0.04 | 0.04 | 71 | 1000.9 |
| 20260505113203 | 64 | 236 | 3.5 | 8.7 | 0.00 | 0.04 | 0.04 | 72 | 1000.9 |
| 20260505112201 | 63 | 230 | 2.6 | 8.7 | 0.00 | 0.04 | 0.04 | 73 | 1000.9 |
| 20260505111202 | 63 | 227 | 2.6 | 9.6 | 0.00 | 0.04 | 0.04 | 74 | 1000.8 |
| 20260505110203 | 62 | 212 | 2.6 | 5.2 | 0.00 | 0.04 | 0.04 | 76 | 1000.6 |
| 20260505102202 | 60 | 174 | 2.6 | 4.3 | 0.00 | 0.04 | 0.04 | 83 | 1000.0 |
| 20260505101202 | 59 | 215 | 2.6 | 8.7 | 0.00 | 0.04 | 0.04 | 85 | 1000.0 |
| 20260505100203 | 58 | 218 | 1.7 | 4.3 | 0.00 | 0.04 | 0.04 | 88 | 1000.0 |
| 20260505095202 | 57 | 236 | 0.9 | 3.5 | 0.00 | 0.04 | 0.04 | 89 | 1000.0 |
| 20260505094202 | 57 | 172 | 0.0 | 0.0 | 0.00 | 0.04 | 0.04 | 90 | 1000.0 |
| 20260505093224 | 56 | 171 | 0.0 | 0.0 | 0.00 | 0.04 | 0.04 | 90 | 999.9 |
| 20260505092223 | 56 | 171 | 0.0 | 0.0 | 0.00 | 0.04 | 0.04 | 90 | 999.9 |
| 20260505091225 | 56 | 171 | 0.0 | 0.0 | 0.00 | 0.04 | 0.04 | 91 | 999.8 |
| 20260505090223 | 55 | 171 | 0.0 | 1.7 | 0.00 | 0.04 | 0.04 | 91 | 999.8 |
| 20260505085201 | 55 | 171 | 0.0 | 3.5 | 0.00 | 0.04 | 0.04 | 91 | 999.9 |
| 20260505084202 | 55 | 196 | 0.0 | 1.7 | 0.00 | 0.04 | 0.04 | 91 | 999.9 |
| 20260505083202 | 55 | 197 | 0.0 | 1.7 | 0.00 | 0.04 | 0.04 | 91 | 1000.1 |
| 20260505082223 | 54 | 197 | 0.0 | 0.0 | 0.00 | 0.04 | 0.04 | 91 | 1000.0 |
| 20260505081203 | 54 | 198 | 0.0 | 1.7 | 0.00 | 0.04 | 0.04 | 90 | 1000.3 |
| 20260505080202 | 54 | 198 | 0.0 | 0.0 | 0.00 | 0.04 | 0.04 | 90 | 1000.4 |
| 20260505075202 | 54 | 198 | 0.0 | 1.7 | 0.00 | 0.04 | 0.04 | 90 | 1000.4 |
| 20260505074202 | 54 | 197 | 0.0 | 2.6 | 0.00 | 0.04 | 0.04 | 90 | 1000.5 |
| 20260505073204 | 54 | 197 | 0.9 | 2.6 | 0.00 | 0.04 | 0.04 | 90 | 1000.6 |
| 20260505072203 | 54 | 197 | 0.9 | 2.6 | 0.00 | 0.04 | 0.04 | 90 | 1000.7 |
| 20260505071202 | 55 | 197 | 0.9 | 3.5 | 0.00 | 0.04 | 0.04 | 89 | 1000.8 |
| 20260505070202 | 55 | 197 | 0.9 | 2.6 | 0.00 | 0.04 | 0.04 | 89 | 1001.0 |
| 20260505065203 | 55 | 196 | 1.7 | 3.5 | 0.01 | 0.04 | 0.04 | 89 | 1001.0 |
| 20260505064201 | 56 | 196 | 1.7 | 4.3 | 0.01 | 0.04 | 0.04 | 88 | 1001.3 |
| 20260505063202 | 56 | 197 | 1.7 | 5.2 | 0.01 | 0.04 | 0.04 | 88 | 1001.8 |
| 20260505062203 | 56 | 233 | 0.9 | 2.6 | 0.01 | 0.04 | 0.04 | 87 | 1001.7 |
| 20260505061203 | 56 | 233 | 0.9 | 7.0 | 0.01 | 0.04 | 0.04 | 86 | 1002.0 |
| 20260505060204 | 57 | 233 | 0.9 | 7.8 | 0.00 | 0.03 | 0.03 | 84 | 1001.9 |
| 20260505055203 | 59 | 226 | 3.5 | 7.8 | 0.03 | 0.03 | 0.03 | 82 | 1002.1 |
| 20260505054201 | 60 | 239 | 4.3 | 13.0 | 0.01 | 0.01 | 0.01 | 78 | 1002.0 |
| 20260505053202 | 60 | 232 | 3.5 | 10.4 | 0.00 | 0.00 | 0.00 | 75 | 1002.0 |
| 20260505052202 | 61 | 226 | 3.5 | 7.0 | 0.00 | 0.00 | 0.00 | 73 | 1001.9 |
| 20260505051202 | 62 | 228 | 4.3 | 12.2 | 0.00 | 0.00 | 0.00 | 72 | 1001.8 |
| 20260505041202 | 63 | 227 | 1.7 | 7.0 | 0.00 | 0.00 | 0.00 | 71 | 1001.7 |
| 20260505040201 | 62 | 217 | 4.3 | 9.6 | 0.00 | 0.00 | 0.00 | 73 | 1001.5 |
| 20260505035203 | 60 | 229 | 2.6 | 4.3 | 0.00 | 0.00 | 0.00 | 75 | 1001.5 |
| 20260505034201 | 59 | 245 | 0.9 | 2.6 | 0.00 | 0.00 | 0.00 | 74 | 1001.4 |
| 20260505033202 | 60 | 245 | 0.0 | 1.7 | 0.00 | 0.00 | 0.00 | 73 | 1001.5 |
| 20260505032204 | 60 | 198 | 0.0 | 2.6 | 0.00 | 0.00 | 0.00 | 72 | 1001.6 |
| 20260505031202 | 60 | 198 | 0.9 | 4.3 | 0.00 | 0.00 | 0.00 | 73 | 1001.8 |
| 20260505030203 | 60 | 226 | 0.9 | 1.7 | 0.00 | 0.00 | 0.00 | 73 | 1002.0 |
| 20260505025224 | 60 | 226 | 0.9 | 2.6 | 0.00 | 0.00 | 0.00 | 74 | 1002.0 |
| 20260505024201 | 59 | 226 | 0.9 | 3.5 | 0.00 | 0.00 | 0.00 | 75 | 1002.1 |
| 20260505023202 | 58 | 286 | 0.0 | 1.7 | 0.00 | 0.00 | 0.00 | 74 | 1002.2 |
| 20260505022202 | 58 | 286 | 0.0 | 7.0 | 0.00 | 0.00 | 0.00 | 73 | 1002.0 |
| 20260505021204 | 57 | 190 | 1.7 | 5.2 | 0.00 | 0.00 | 0.00 | 71 | 1002.3 |
| 20260505020202 | 58 | 240 | 0.0 | 0.9 | 0.00 | 0.00 | 0.00 | 64 | 1002.5 |
| 20260505015202 | 59 | 241 | 0.0 | 0.0 | 0.00 | 0.00 | 0.00 | 62 | 1002.0 |
| 20260505014202 | 59 | 241 | 0.0 | 1.7 | 0.00 | 0.00 | 0.00 | 62 | 1002.0 |
| 20260505013202 | 60 | 240 | 0.0 | 3.5 | 0.00 | 0.00 | 0.00 | 59 | 1002.1 |
| 20260505012202 | 61 | 248 | 0.9 | 2.6 | 0.00 | 0.00 | 0.00 | 59 | 1002.2 |
| 20260505011202 | 61 | 249 | 0.0 | 1.7 | 0.00 | 0.00 | 0.00 | 57 | 1002.1 |
| 20260505010202 | 62 | 249 | 0.9 | 2.6 | 0.00 | 0.00 | 0.00 | 56 | 1002.0 |
| 20260505005202 | 63 | 249 | 0.9 | 2.6 | 0.00 | 0.00 | 0.00 | 54 | 1001.9 |
| 20260505004205 | 64 | 249 | 0.9 | 2.6 | 0.00 | 0.00 | 0.00 | 52 | 1001.9 |
| 20260505003204 | 65 | 249 | 1.7 | 2.6 | 0.00 | 0.00 | 0.00 | 51 | 1001.9 |
| 20260505002202 | 66 | 249 | 0.9 | 2.6 | 0.00 | 0.00 | 0.00 | 49 | 1002.0 |
| 20260505001201 | 66 | 243 | 1.7 | 3.5 | 0.00 | 0.00 | 0.00 | 47 | 1001.9 |
| 20260505000204 | 67 | 243 | 1.7 | 7.8 | 0.00 | 0.00 | 0.00 | 48 | 1002.0 |
| 20260504235203 | 67 | 227 | 1.7 | 9.6 | 0.00 | 0.00 | 0.00 | 47 | 1002.0 |
| 20260504234246 | 68 | 236 | 1.7 | 5.2 | 0.00 | 0.00 | 0.00 | 47 | 1002.0 |
| 20260504233202 | 68 | 242 | 1.7 | 7.8 | 0.00 | 0.00 | 0.00 | 46 | 1001.9 |
| 20260504232204 | 69 | 261 | 3.5 | 9.6 | 0.00 | 0.00 | 0.00 | 50 | 1002.0 |
| 20260504231203 | 69 | 277 | 5.2 | 11.3 | 0.00 | 0.00 | 0.00 | 48 | 1002.1 |